Ladysmith, WI

5:59 PM CST on November 15, 2019 (GMT -0600)
Rusk County

Weather History for KRCX - August, 2019

Change the Weather History Date:

Thursday, August 1, 2019

  Actual Average (WUND) Record (WUND)
Temperature  
Mean Temperature 67 °F -  
Max Temperature 81 °F - - (-1)
Min Temperature 53 °F - - (-1)
Cooling Degree Days 2    
Growing Degree Days 17 (Base 50)    
Moisture  
Dew Point 58 °F    
Average Humidity 74    
Maximum Humidity 99    
Minimum Humidity 48    
Precipitation  
Precipitation 0.00 in - - ()
Sea Level Pressure  
Sea Level Pressure 30.21 in    
Wind  
Wind Speed 2 mph (SSW)    
Max Wind Speed 8 mph    
Max Gust Speed -    
Visibility 10 miles    
Events      
Averages and records for this station are not official NWS values.
T = Trace of Precipitation, MM = Missing Value Source: NWS Daily Summary

Daily Weather History Graph

Daily Weather History Graph

Search for Another Location

Airport or City:

Astronomy

Aug. 01, 2019 Rise Set
Actual Time 5:47 AM CDT 8:32 PM CDT
Civil Twilight 5:13 AM CDT 9:06 PM CDT
Nautical Twilight 4:30 AM CDT 9:49 PM CDT
Astronomical Twilight 3:39 AM CDT 10:39 PM CDT
Moon 6:11 AM CDT (8/1) 9:18 PM CDT (8/1)
Length of Visible Light 15h 52m
Length of Day
14h 44m
New Moon, 1% of the Moon is Illuminated
Aug 1
New Moon
Aug 7
First Quarter
Aug 15
Full
Aug 23
Last Quarter
Aug 30
New

Hourly Weather History & Observations

Time (CDT) Temp. Heat Index Dew Point Humidity Pressure Visibility Wind Dir Wind Speed Gust Speed Precip Events Conditions
12:15 AM 55.8 °F - 55.0 °F 97% 30.20 in 10.0 mi Calm Calm - N/A   Clear
12:35 AM 56.7 °F - 55.6 °F 96% 30.20 in 10.0 mi Calm Calm - N/A   Scattered Clouds
12:55 AM 56.5 °F - 55.4 °F 96% 30.20 in 10.0 mi Calm Calm - N/A   Scattered Clouds
1:15 AM 55.8 °F - 54.7 °F 96% 30.20 in 10.0 mi Calm Calm - N/A   Clear
1:35 AM 55.2 °F - 54.5 °F 97% 30.20 in 10.0 mi Calm Calm - N/A   Clear
1:55 AM 54.7 °F - 54.0 °F 97% 30.20 in 10.0 mi Calm Calm - N/A   Clear
2:15 AM 55.8 °F - 55.0 °F 97% 30.20 in 10.0 mi Calm Calm - N/A   Clear
2:35 AM 54.9 °F - 54.0 °F 97% 30.20 in 10.0 mi Calm Calm - N/A   Clear
2:55 AM 54.0 °F - 53.4 °F 98% 30.20 in 10.0 mi Calm Calm - N/A   Clear
3:15 AM 53.8 °F - 53.4 °F 99% 30.20 in 10.0 mi Calm Calm - N/A   Clear
3:35 AM 54.5 °F - 53.6 °F 97% 30.20 in 10.0 mi Calm Calm - N/A   Scattered Clouds
3:55 AM 54.0 °F - 52.9 °F 96% 30.21 in 10.0 mi Calm Calm - N/A   Scattered Clouds
4:15 AM 54.7 °F - 53.6 °F 96% 30.21 in 10.0 mi Calm Calm - N/A   Mostly Cloudy
4:35 AM 54.9 °F - 53.2 °F 94% 30.21 in 10.0 mi Calm Calm - N/A   Mostly Cloudy
4:55 AM 54.9 °F - 53.6 °F 96% 30.22 in 10.0 mi Calm Calm - N/A   Mostly Cloudy
5:15 AM 55.0 °F - 53.1 °F 93% 30.22 in 10.0 mi Calm Calm - N/A   Mostly Cloudy
5:35 AM 54.9 °F - 52.7 °F 92% 30.21 in 10.0 mi Calm Calm - N/A   Scattered Clouds
5:55 AM 54.5 °F - 52.2 °F 92% 30.22 in 10.0 mi Calm Calm - N/A   Scattered Clouds
6:15 AM 54.3 °F - 52.0 °F 92% 30.23 in 10.0 mi Calm Calm - N/A   Scattered Clouds
6:35 AM 54.0 °F - 52.2 °F 94% 30.23 in 10.0 mi Calm Calm - N/A   Clear
6:55 AM 54.5 °F - 52.2 °F 92% 30.23 in 10.0 mi Calm Calm - N/A   Scattered Clouds
7:15 AM 56.3 °F - 52.9 °F 88% 30.24 in 10.0 mi Calm Calm - N/A   Mostly Cloudy
7:35 AM 56.7 °F - 52.5 °F 86% 30.25 in 10.0 mi Calm Calm - N/A   Mostly Cloudy
7:55 AM 56.8 °F - 52.9 °F 87% 30.25 in 10.0 mi Calm Calm - N/A   Scattered Clouds
8:15 AM 59.4 °F - 53.2 °F 80% 30.25 in 10.0 mi East 4.6 mph - N/A   Mostly Cloudy
8:35 AM 61.2 °F - 54.1 °F 78% 30.25 in 10.0 mi SE 3.5 mph - N/A   Mostly Cloudy
8:55 AM 63.7 °F - 54.5 °F 72% 30.25 in 10.0 mi ESE 3.5 mph - N/A   Scattered Clouds
9:15 AM 66.4 °F - 54.7 °F 66% 30.25 in 10.0 mi South 3.5 mph - N/A   Clear
9:35 AM 67.5 °F - 55.4 °F 65% 30.25 in 10.0 mi Calm Calm - N/A   Clear
9:55 AM 69.3 °F - 56.3 °F 63% 30.26 in 10.0 mi SSE 3.5 mph - N/A   Clear
10:15 AM 70.7 °F - 57.9 °F 64% 30.26 in 10.0 mi SW 4.6 mph - N/A   Clear
10:35 AM 72.5 °F - 58.3 °F 61% 30.26 in 10.0 mi SSW 4.6 mph - N/A   Clear
10:55 AM 73.4 °F - 57.9 °F 58% 30.26 in 10.0 mi South 4.6 mph - N/A   Clear
11:15 AM 74.3 °F - 59.5 °F 60% 30.26 in 10.0 mi SW 6.9 mph - N/A   Clear
11:35 AM 74.5 °F - 60.3 °F 61% 30.25 in 10.0 mi SSW 4.6 mph - N/A   Clear
11:55 AM 75.6 °F - 61.9 °F 62% 30.24 in 10.0 mi South 4.6 mph - N/A   Clear
12:15 PM 76.1 °F - 60.6 °F 59% 30.24 in 10.0 mi SSW 4.6 mph - N/A   Scattered Clouds
12:35 PM 76.5 °F - 61.0 °F 59% 30.23 in 10.0 mi South 6.9 mph - N/A   Scattered Clouds
12:55 PM 76.1 °F - 60.4 °F 58% 30.23 in 10.0 mi WSW 5.8 mph - N/A   Scattered Clouds
1:15 PM 77.4 °F - 60.4 °F 56% 30.23 in 10.0 mi SSW 6.9 mph - N/A   Clear
1:35 PM 78.1 °F - 60.4 °F 54% 30.23 in 10.0 mi SW 5.8 mph - N/A   Clear
1:55 PM 78.6 °F - 61.3 °F 55% 30.22 in 10.0 mi SSW 6.9 mph - N/A   Clear
2:15 PM 78.4 °F - 60.6 °F 54% 30.22 in 10.0 mi West 4.6 mph - N/A   Scattered Clouds
2:35 PM 79.5 °F - 59.0 °F 49% 30.21 in 10.0 mi SW 8.1 mph - N/A   Scattered Clouds
2:55 PM 79.9 °F - 59.2 °F 49% 30.21 in 10.0 mi WSW 5.8 mph - N/A   Clear
3:15 PM 79.9 °F - 59.9 °F 50% 30.21 in 10.0 mi SSW 6.9 mph - N/A   Clear
3:35 PM 80.6 °F 81.5 °F 61.2 °F 51% 30.20 in 10.0 mi Calm Calm - N/A   Clear
4:15 PM 80.6 °F 81.1 °F 59.2 °F 48% 30.20 in 10.0 mi SW 3.5 mph - N/A   Clear
4:35 PM 80.4 °F 81.2 °F 60.3 °F 50% 30.20 in 10.0 mi WNW 3.5 mph - N/A   Clear
4:55 PM 80.8 °F 81.3 °F 59.5 °F 48% 30.20 in 10.0 mi WNW 3.5 mph - N/A   Clear
5:15 PM 80.6 °F 81.1 °F 59.0 °F 48% 30.19 in 10.0 mi Calm Calm - N/A   Clear
5:35 PM 81.0 °F 81.8 °F 61.5 °F 51% 30.19 in 10.0 mi SW 4.6 mph - N/A   Clear
5:55 PM 80.2 °F 81.0 °F 59.9 °F 50% 30.19 in 10.0 mi SW 5.8 mph - N/A   Clear
6:15 PM 80.2 °F 81.1 °F 60.4 °F 51% 30.19 in 10.0 mi SSW 3.5 mph - N/A   Clear
6:35 PM 80.1 °F 81.0 °F 60.3 °F 51% 30.19 in 10.0 mi Calm Calm - N/A   Clear
6:55 PM 79.7 °F - 59.9 °F 51% 30.19 in 10.0 mi SW 3.5 mph - N/A   Clear
7:15 PM 79.2 °F - 61.0 °F 54% 30.18 in 10.0 mi SW 3.5 mph - N/A   Clear
7:35 PM 78.1 °F - 63.0 °F 60% 30.18 in 10.0 mi SSW 3.5 mph - N/A   Clear
7:55 PM 76.5 °F - 63.1 °F 63% 30.17 in 10.0 mi SSW 4.6 mph - N/A   Clear
8:15 PM 75.0 °F - 63.0 °F 66% 30.18 in 10.0 mi SSW 4.6 mph - N/A   Clear
8:35 PM 73.8 °F - 62.6 °F 68% 30.18 in 10.0 mi South 3.5 mph - N/A   Clear
8:55 PM 72.9 °F - 62.6 °F 70% 30.18 in 10.0 mi Calm Calm - N/A   Clear
9:15 PM 71.8 °F - 62.1 °F 71% 30.18 in 10.0 mi SSE 3.5 mph - N/A   Clear
9:35 PM 69.3 °F - 63.0 °F 80% 30.18 in 10.0 mi Calm Calm - N/A   Clear
9:55 PM 68.4 °F - 62.6 °F 82% 30.19 in 10.0 mi Calm Calm - N/A   Clear
10:15 PM 66.2 °F - 63.3 °F 90% 30.19 in 10.0 mi Calm Calm - N/A   Clear
10:35 PM 66.0 °F - 64.0 °F 93% 30.19 in 10.0 mi Calm Calm - N/A   Clear
10:55 PM 67.1 °F - 64.6 °F 92% 30.18 in 10.0 mi Calm Calm - N/A   Clear
11:15 PM 65.5 °F - 63.5 °F 93% 30.18 in 10.0 mi Calm Calm - N/A   Clear
11:35 PM 64.4 °F - 63.7 °F 98% 30.18 in 10.0 mi Calm Calm - N/A   Scattered Clouds
11:55 PM 65.3 °F - 64.6 °F 98% 30.18 in 10.0 mi Calm Calm - N/A   Overcast